YO8RXT-3 Weather Reports


time (UTC)temp
C
wind
direction
speed
KPH
gust
KPH
rain 1hr
cm
rain 24hr
cm
rain mn
cm
humidity
%
barometer
mb
20260508180502 15 340 9.7 0.0 0.00 0.00 0.00 94 1016.0
20260508173502 15 110 4.8 0.0 0.00 0.00 0.00 94 1015.0
20260508170502 16 90 8.0 0.0 0.00 0.00 0.00 88 1015.0
20260508163502 16 80 9.7 0.0 0.00 0.00 0.00 94 1015.0
20260508160502 16 150 8.0 0.0 0.00 0.00 0.00 88 1015.0
20260508153505 16 150 9.7 0.0 0.00 0.00 0.00 94 1015.0
20260508150502 -17 0.0 0.0 0.00 0.00 0.00
20260508143502 15 320 17.7 0.0 0.00 0.00 0.00 88 1015.0
20260508140502 -17 320 17.7 0.0 0.00 0.00 0.00
20260508133502 22 120 14.5 0.0 0.00 0.00 0.00 50 1014.0
20260508130502 22 120 14.5 0.0 0.00 0.00 0.00 50 1014.0
20260508123503 22 100 17.7 0.0 0.00 0.00 0.00 53 1014.0
20260508120502 22 100 20.9 0.0 0.00 0.00 0.00 53 1014.0
20260508113502 22 90 20.9 0.0 0.00 0.00 0.00 57 1014.0
20260508110502 22 90 20.9 0.0 0.00 0.00 0.00 57 1014.0
20260508103503 21 100 20.9 0.0 0.00 0.00 0.00 60 1015.0
20260508100502 20 110 14.5 0.0 0.00 0.00 0.00 64 1015.0
20260508093502 18 110 16.1 0.0 0.00 0.00 0.00 64 1015.0
20260508090503 17 140 11.3 0.0 0.00 0.00 0.00 68 1015.0
20260508083502 17 130 8.0 0.0 0.00 0.00 0.00 73 1016.0
20260508080502 16 130 8.0 0.0 0.00 0.00 0.00 77
20260508073502 15 130 11.3 0.0 0.00 0.00 0.00 77 1015.0
20260508070502 13 130 12.9 0.0 0.00 0.00 0.00 82 1015.0
20260508063502 12 110 17.7 0.0 0.00 0.00 0.00 82 1015.0
20260508060502 12 110 17.7 0.0 0.00 0.00 0.00 88 1015.0
20260508053503 11 100 17.7 0.0 0.00 0.00 0.00 94 1015.0
20260508050502 11 110 17.7 0.0 0.00 0.00 0.00 88 1015.0
20260508043503 11 110 16.1 0.0 0.00 0.00 0.00 82 1015.0
20260508040502 11 110 16.1 0.0 0.00 0.00 0.00 82 1015.0
20260508033503 10 120 12.9 0.0 0.00 0.00 0.00 88 1015.0
20260508030502 10 110 12.9 0.0 0.00 0.00 0.00 88 1014.0
20260508023502 10 110 16.1 0.0 0.00 0.00 0.00 88 1014.0
20260508020502 10 110 14.5 0.0 0.00 0.00 0.00 88 1014.0
20260508013502 11 110 14.5 0.0 0.00 0.00 0.00 82 1014.0
20260508010502 11 110 16.1 0.0 0.00 0.00 0.00 82 1014.0
20260508003502 11 110 16.1 0.0 0.00 0.00 0.00 82 1014.0
20260508000503 11 110 16.1 0.0 0.00 0.00 0.00 82 1014.0
20260507233503 12 110 17.7 0.0 0.00 0.00 0.00 77 1014.0
20260507230502 12 110 17.7 0.0 0.00 0.00 0.00 77 1014.0
20260507223502 12 110 20.9 0.0 0.00 0.00 0.00 77 1014.0
20260507220502 12 120 17.7 0.0 0.00 0.00 0.00 72 1014.0
20260507213503 12 120 20.9 0.0 0.00 0.00 0.00 72 1014.0
20260507210503 13 120 20.9 0.0 0.00 0.00 0.00 67 1014.0
20260507203502 13 120 20.9 0.0 0.00 0.00 0.00 67 1014.0
20260507200502 16 120 20.9 0.0 0.00 0.00 0.00 63 1014.0
20260507193502 16 130 25.7 0.0 0.00 0.00 0.00 63 1014.0
20260507190503 17 120 24.1 0.0 0.00 0.00 0.00 59 1014.0
20260507183503 17 110 22.5 0.0 0.00 0.00 0.00 56 1014.0